SQ5DCP-1 Weather Reports


Display with metric or nautical units.
time (UTC)temp
F
wind
direction
speed
MPH
gust
MPH
rain 1hr
in
rain 24hr
in
rain mn
in
humidity
%
barometer
mb
20260903093020 70 281 4.0 9.0 0.00 0.00 0.00 59 1019.5
20260903092520 69 280 4.0 10.0 0.00 0.00 0.00 61 1019.4
20260903092048 69 297 3.0 4.0 0.00 0.00 0.00 59 1019.5
20260903092016 69 297 3.0 4.0 0.00 0.00 0.00 59 1019.5
20260903091535 69 288 5.0 14.0 0.00 0.00 0.00 60 1019.6
20260903091033 69 310 3.0 7.0 0.00 0.00 0.00 60 1019.5
20260903090531 68 283 3.0 7.0 0.00 0.00 0.00 61 1019.5
20260903090029 68 296 2.0 6.0 0.00 0.00 0.00 62 1019.5
20260903085528 68 308 3.0 8.0 0.00 0.00 0.00 63 1019.6
20260903085025 68 285 3.0 8.0 0.00 0.00 0.00 64 1019.6
20260903084523 67 313 3.0 9.0 0.00 0.00 0.00 63 1019.6
20260903084022 67 286 2.0 7.0 0.00 0.00 0.00 65 1019.7
20260903083520 67 289 3.0 6.0 0.00 0.00 0.00 65 1019.6
20260903083019 67 289 3.0 9.0 0.00 0.00 0.00 64 1019.7
20260903082516 66 289 4.0 10.0 0.00 0.00 0.00 67 1019.7
20260903082035 66 323 1.0 6.0 0.00 0.00 0.00 67 1019.6
20260903081532 66 341 4.0 9.0 0.00 0.00 0.00 67 1019.6
20260903081031 65 310 2.0 6.0 0.00 0.00 0.00 68 1019.6
20260903080529 65 301 5.0 9.0 0.00 0.00 0.00 68 1019.6
20260903080027 65 296 4.0 7.0 0.00 0.00 0.00 69 1019.6
20260903075525 65 279 5.0 9.0 0.00 0.00 0.00 71 1019.6
20260903075023 64 279 4.0 8.0 0.00 0.00 0.00 72 1019.5
20260903074522 64 284 3.0 7.0 0.00 0.00 0.00 71 1019.5
20260903074020 64 295 3.0 7.0 0.00 0.00 0.00 73 1019.4
20260903073518 63 281 4.0 8.0 0.00 0.00 0.00 73 1019.4
20260903073048 63 284 4.0 8.0 0.00 0.00 0.00 73 1019.5
20260903073016 63 284 4.0 8.0 0.00 0.00 0.00 73 1019.5
20260903072535 63 280 2.0 7.0 0.00 0.00 0.00 74 1019.5
20260903072033 63 299 4.0 7.0 0.00 0.00 0.00 74 1019.6
20260903071531 62 299 5.0 10.0 0.00 0.00 0.00 75 1019.5
20260903071029 62 297 3.0 7.0 0.00 0.00 0.00 76 1019.5
20260903070527 62 283 3.0 7.0 0.00 0.00 0.00 77 1019.5
20260903070025 62 295 3.0 8.0 0.00 0.00 0.00 78 1019.4
20260903065523 61 270 3.0 8.0 0.00 0.00 0.00 79 1019.4
20260903065022 61 281 4.0 8.0 0.00 0.00 0.00 80 1019.5
20260903064520 61 290 3.0 9.0 0.00 0.00 0.00 80 1019.5
20260903064049 60 300 1.0 6.0 0.00 0.00 0.00 81 1019.5
20260903064018 60 300 1.0 6.0 0.00 0.00 0.00 81 1019.5
20260903063516 60 274 1.0 4.0 0.00 0.00 0.00 82 1019.5
20260903063034 60 293 1.0 4.0 0.00 0.00 0.00 82 1019.4
20260903062533 59 287 3.0 7.0 0.00 0.00 0.00 82 1019.5
20260903062030 59 280 3.0 7.0 0.00 0.00 0.00 83 1019.4
20260903061529 59 290 4.0 9.0 0.00 0.00 0.00 83 1019.5
20260903061027 59 278 3.0 7.0 0.00 0.00 0.00 84 1019.5
20260903060526 58 283 3.0 8.0 0.00 0.00 0.00 84 1019.5
20260903060023 58 280 3.0 8.0 0.00 0.00 0.00 84 1019.4
20260903055521 58 279 3.0 7.0 0.00 0.00 0.00 84 1019.4
20260903055020 57 282 3.0 6.0 0.00 0.00 0.00 84 1019.3
20260903054518 57 278 2.0 6.0 0.00 0.00 0.00 84 1019.3
20260903054048 57 281 2.0 4.0 0.00 0.00 0.00 84 1019.4
20260903054015 57 281 2.0 4.0 0.00 0.00 0.00 84 1019.4
20260903053534 57 272 3.0 6.0 0.00 0.00 0.00 84 1019.4
20260903053032 57 291 2.0 6.0 0.00 0.00 0.00 84 1019.4
20260903052530 56 291 2.0 6.0 0.00 0.00 0.00 84 1019.4
20260903052028 56 287 2.0 3.0 0.00 0.00 0.00 84 1019.4
20260903051526 56 284 3.0 7.0 0.00 0.00 0.00 84 1019.3
20260903051025 55 286 2.0 6.0 0.00 0.00 0.00 84 1019.3
20260903050523 55 278 2.0 4.0 0.00 0.00 0.00 84 1019.3
20260903050021 55 283 1.0 4.0 0.00 0.00 0.00 83 1019.4
20260903045520 54 286 1.0 3.0 0.00 0.00 0.00 83 1019.4
20260903045049 54 271 1.0 4.0 0.00 0.00 0.00 82 1019.4
20260903045017 54 271 1.0 4.0 0.00 0.00 0.00 82 1019.4
20260903044535 54 0.0 0.0 0.00 0.00 0.00 82 1019.3
20260903044034 54 0.0 0.0 0.00 0.00 0.00 82 1019.4
20260903043532 54 0.0 0.0 0.00 0.00 0.00 82 1019.4
20260903043030 54 0.0 0.0 0.00 0.00 0.00 82 1019.3
20260903042528 54 0.0 0.0 0.00 0.00 0.00 82 1019.4
20260903042026 54 0.0 0.0 0.00 0.00 0.00 81 1019.3
20260903041525 54 0.0 0.0 0.00 0.00 0.00 81 1019.3
20260903041022 54 0.0 0.0 0.00 0.00 0.00 81 1019.3
20260903040521 54 0.0 0.0 0.00 0.00 0.00 81 1019.3
20260903040019 54 0.0 0.0 0.00 0.00 0.00 81 1019.4
20260903035517 54 0.0 0.0 0.00 0.00 0.00 81 1019.4
20260903035035 54 0.0 0.0 0.00 0.00 0.00 81 1019.4
20260903034533 54 0.0 0.0 0.00 0.00 0.00 81 1019.5
20260903034031 54 0.0 0.0 0.00 0.00 0.00 81 1019.5
20260903033529 54 0.0 0.0 0.00 0.00 0.00 81 1019.4
20260903033028 54 0.0 0.0 0.00 0.00 0.00 81 1019.4
20260903032526 54 0.0 0.0 0.00 0.00 0.00 81 1019.3
20260903032024 54 0.0 0.0 0.00 0.00 0.00 81 1019.2
20260903031522 55 0.0 0.0 0.00 0.00 0.00 81 1019.4
20260903031020 55 0.0 0.0 0.00 0.00 0.00 81 1019.2
20260903030518 55 0.0 0.0 0.00 0.00 0.00 81 1019.3
20260903030049 55 0.0 0.0 0.00 0.00 0.00 81 1019.3
20260903030016 55 0.0 0.0 0.00 0.00 0.00 81 1019.3
20260903025535 55 0.0 0.0 0.00 0.00 0.00 81 1019.2
20260903025033 55 0.0 0.0 0.00 0.00 0.00 81 1019.3
20260903024531 55 0.0 0.0 0.00 0.00 0.00 81 1019.2
20260903024129 55 0.0 0.0 0.00 0.00 0.00 81 1019.3
20260903024029 55 0.0 0.0 0.00 0.00 0.00 81 1019.3
20260903023527 55 0.0 0.0 0.00 0.00 0.00 81 1019.3
20260903023025 55 0.0 0.0 0.00 0.00 0.00 81 1019.3
20260903022523 55 0.0 0.0 0.00 0.00 0.00 81 1019.4
20260903022022 55 0.0 0.0 0.00 0.00 0.00 81 1019.4
20260903021519 55 0.0 0.0 0.00 0.00 0.00 81 1019.4
20260903021132 55 0.0 0.0 0.00 0.00 0.00 81 1019.5
20260903021017 55 0.0 0.0 0.00 0.00 0.00 81 1019.5
20260903020516 56 0.0 0.0 0.00 0.00 0.00 81 1019.5
20260903020230 56 0.0 0.0 0.00 0.00 0.00 81 1019.5
20260903020034 56 0.0 0.0 0.00 0.00 0.00 81 1019.5
20260903015532 56 0.0 0.0 0.00 0.00 0.00 81 1019.5
20260903015030 56 0.0 0.0 0.00 0.00 0.00 81 1019.6
20260903014528 56 0.0 0.0 0.00 0.00 0.00 81 1019.6
20260903014026 56 0.0 0.0 0.00 0.00 0.00 81 1019.7
20260903013525 56 0.0 0.0 0.00 0.00 0.00 81 1019.6
20260903013023 56 0.0 0.0 0.00 0.00 0.00 80 1019.5
20260903012521 56 0.0 0.0 0.00 0.00 0.00 80 1019.6
20260903012019 56 0.0 0.0 0.00 0.00 0.00 80 1019.5
20260903011518 56 0.0 0.0 0.00 0.00 0.00 80 1019.6
20260903011046 56 0.0 0.0 0.00 0.00 0.00 80 1019.5
20260903011015 56 0.0 0.0 0.00 0.00 0.00 80 1019.5
20260903010534 56 0.0 0.0 0.00 0.00 0.00 80 1019.7
20260903010032 56 0.0 0.0 0.00 0.00 0.00 80 1019.6
20260903005530 56 0.0 0.0 0.00 0.00 0.00 80 1019.7
20260903005029 56 0.0 0.0 0.00 0.00 0.00 80 1019.7
20260903004526 56 0.0 0.0 0.00 0.00 0.00 80 1019.6
20260903004024 56 0.0 0.0 0.00 0.00 0.00 80 1019.6
20260903003522 56 0.0 0.0 0.00 0.00 0.00 80 1019.6
20260903003051 56 0.0 0.0 0.00 0.00 0.00 80 1019.6
20260903003020 56 0.0 0.0 0.00 0.00 0.00 80 1019.6
20260903002519 56 0.0 0.0 0.00 0.00 0.00 80 1019.6
20260903002017 56 0.0 0.0 0.00 0.00 0.00 80 1019.6
20260903001535 56 0.0 0.0 0.00 0.00 0.00 79 1019.6
20260903001033 56 0.0 0.0 0.00 0.00 0.00 79 1019.6
20260903000531 56 0.0 0.0 0.00 0.00 0.00 79 1019.7
20260903000029 56 0.0 0.0 0.00 0.00 0.00 79 1019.6
20260902235527 56 0.0 0.0 0.00 0.00 0.00 79 1019.6
20260902235025 56 0.0 0.0 0.00 0.00 0.00 79 1019.6
20260902234524 56 0.0 0.0 0.00 0.00 0.00 79 1019.7
20260902234022 56 0.0 0.0 0.00 0.00 0.00 78 1019.7
20260902233520 56 0.0 0.0 0.00 0.00 0.00 78 1019.8
20260902233049 56 0.0 0.0 0.00 0.00 0.00 78 1019.9
20260902233018 56 0.0 0.0 0.00 0.00 0.00 78 1019.9
20260902232516 57 0.0 0.0 0.00 0.00 0.00 78 1019.9
20260902232130 57 0.0 0.0 0.00 0.00 0.00 78 1019.8
20260902232035 57 0.0 0.0 0.00 0.00 0.00 78 1019.8
20260902231532 57 0.0 0.0 0.00 0.00 0.00 78 1019.8
20260902231031 57 0.0 0.0 0.00 0.00 0.00 78 1019.8
20260902230528 57 0.0 0.0 0.00 0.00 0.00 78 1019.8
20260902230027 57 0.0 0.0 0.00 0.00 0.00 78 1019.7
20260902225525 57 0.0 0.0 0.00 0.00 0.00 78 1019.8
20260902225023 57 0.0 0.0 0.00 0.00 0.00 78 1019.9
20260902224521 57 0.0 0.0 0.00 0.00 0.00 77 1019.9
20260902224020 57 0.0 0.0 0.00 0.00 0.00 77 1019.8
20260902223517 57 0.0 0.0 0.00 0.00 0.00 77 1019.9
20260902223048 58 0.0 0.0 0.00 0.00 0.00 77 1019.8
20260902223015 58 0.0 0.0 0.00 0.00 0.00 77 1019.8
20260902222534 58 0.0 0.0 0.00 0.00 0.00 77 1019.8
20260902222032 58 0.0 0.0 0.00 0.00 0.00 77 1020.0
20260902221530 58 0.0 0.0 0.00 0.00 0.00 77 1020.0
20260902221029 58 0.0 0.0 0.00 0.00 0.00 77 1020.1
20260902220526 58 0.0 0.0 0.00 0.00 0.00 77 1020.1
20260902220024 59 0.0 0.0 0.00 0.00 0.00 77 1020.0
20260902215522 59 0.0 0.0 0.00 0.00 0.00 77 1020.0
20260902215020 59 0.0 0.0 0.00 0.00 0.00 77 1020.1
20260902214518 59 0.0 0.0 0.00 0.00 0.00 77 1020.0
20260902214048 59 0.0 0.0 0.00 0.00 0.00 77 1020.0
20260902214016 59 0.0 0.0 0.00 0.00 0.00 77 1020.0
20260902213534 59 0.0 0.0 0.00 0.00 0.00 77 1020.0
20260902213033 59 0.0 0.0 0.00 0.00 0.00 77 1019.9
20260902212531 59 0.0 0.0 0.00 0.00 0.00 76 1019.9
20260902212029 59 0.0 0.0 0.00 0.00 0.00 76 1019.9
20260902211527 59 0.0 0.0 0.00 0.00 0.00 76 1020.0
20260902211043 60 0.0 0.0 0.00 0.00 0.00 76 1020.0
20260902211026 60 0.0 0.0 0.00 0.00 0.00 76 1020.1
20260902210523 60 0.0 0.0 0.00 0.00 0.00 76 1020.0
20260902210022 60 0.0 0.0 0.00 0.00 0.00 76 1020.0
20260902205519 60 0.0 0.0 0.00 0.00 0.00 76 1020.0
20260902205049 60 0.0 0.0 0.00 0.00 0.00 75 1020.0
20260902205018 60 0.0 0.0 0.00 0.00 0.00 75 1020.0
20260902204516 60 0.0 0.0 0.00 0.00 0.00 75 1020.0
20260902204034 60 0.0 0.0 0.00 0.00 0.00 75 1020.0
20260902203532 60 0.0 0.0 0.00 0.00 0.00 75 1020.0
20260902203031 61 0.0 0.0 0.00 0.00 0.00 75 1020.0
20260902202529 61 0.0 0.0 0.00 0.00 0.00 75 1019.8
20260902202027 61 0.0 0.0 0.00 0.00 0.00 75 1020.0
20260902201525 61 0.0 0.0 0.00 0.00 0.00 75 1020.1
20260902201023 61 0.0 0.0 0.00 0.00 0.00 75 1020.0
20260902200521 61 0.0 0.0 0.00 0.00 0.00 75 1020.1
20260902200020 61 0.0 0.0 0.00 0.00 0.00 74 1020.0
20260902195517 61 0.0 0.0 0.00 0.00 0.00 74 1020.1
20260902195035 62 0.0 0.0 0.00 0.00 0.00 74 1020.0
20260902194534 62 0.0 0.0 0.00 0.00 0.00 74 1020.1
20260902194032 62 0.0 0.0 0.00 0.00 0.00 74 1020.0
20260902193530 62 0.0 0.0 0.00 0.00 0.00 74 1020.1
20260902193028 62 0.0 0.0 0.00 0.00 0.00 73 1020.1
20260902192526 62 0.0 0.0 0.00 0.00 0.00 73 1020.1
20260902192024 63 0.0 0.0 0.00 0.00 0.00 73 1020.1
20260902191522 63 0.0 0.0 0.00 0.00 0.00 73 1020.2
20260902191020 63 0.0 0.0 0.00 0.00 0.00 72 1020.2
20260902190518 63 0.0 0.0 0.00 0.00 0.00 72 1020.1
20260902190017 64 0.0 0.0 0.00 0.00 0.00 72 1020.2
20260902185535 64 0.0 0.0 0.00 0.00 0.00 72 1020.1
20260902185033 64 0.0 0.0 0.00 0.00 0.00 72 1020.2
20260902184531 64 0.0 0.0 0.00 0.00 0.00 71 1020.0
20260902184029 64 0.0 0.0 0.00 0.00 0.00 71 1020.1
20260902183528 65 0.0 0.0 0.00 0.00 0.00 71 1020.1
20260902183026 65 0.0 0.0 0.00 0.00 0.00 70 1020.1
20260902182524 65 0.0 0.0 0.00 0.00 0.00 70 1020.0
20260902182022 65 0.0 0.0 0.00 0.00 0.00 70 1020.0
20260902181520 65 0.0 0.0 0.00 0.00 0.00 70 1020.0
20260902181049 66 0.0 0.0 0.00 0.00 0.00 69 1019.9
20260902181018 66 0.0 0.0 0.00 0.00 0.00 69 1019.9
20260902180516 66 0.0 0.0 0.00 0.00 0.00 69 1019.8
20260902180034 66 0.0 0.0 0.00 0.00 0.00 69 1019.9
20260902175532 66 0.0 0.0 0.00 0.00 0.00 69 1019.8
20260902175030 67 0.0 0.0 0.00 0.00 0.00 68 1019.7
20260902174529 67 0.0 0.0 0.00 0.00 0.00 68 1019.7
20260902174026 67 282 0.0 1.0 0.00 0.00 0.00 68 1019.6
20260902173525 67 0.0 0.0 0.00 0.00 0.00 68 1019.7
20260902173022 67 0.0 0.0 0.00 0.00 0.00 67 1019.6
20260902172521 68 290 1.0 3.0 0.00 0.00 0.00 67 1019.5
20260902172019 68 285 1.0 3.0 0.00 0.00 0.00 67 1019.5
20260902171517 68 280 2.0 4.0 0.00 0.00 0.00 66 1019.5
20260902171035 68 277 2.0 3.0 0.00 0.00 0.00 66 1019.6
20260902170533 68 292 1.0 2.0 0.00 0.00 0.00 65 1019.5
20260902170031 68 0.0 0.0 0.00 0.00 0.00 65 1019.4
20260902165529 69 286 1.0 2.0 0.00 0.00 0.00 65 1019.4
20260902165027 69 282 2.0 4.0 0.00 0.00 0.00 65 1019.4
20260902164525 69 282 2.0 4.0 0.00 0.00 0.00 65 1019.4
20260902164024 69 284 2.0 7.0 0.00 0.00 0.00 64 1019.4
20260902163522 69 294 3.0 6.0 0.00 0.00 0.00 64 1019.4
20260902163020 69 288 2.0 6.0 0.00 0.00 0.00 64 1019.4
20260902162518 69 299 3.0 9.0 0.00 0.00 0.00 64 1019.2
20260902162049 69 280 2.0 3.0 0.00 0.00 0.00 63 1019.2
20260902162016 69 280 2.0 3.0 0.00 0.00 0.00 63 1019.2
20260902161535 70 268 2.0 3.0 0.00 0.00 0.00 63 1019.1
20260902161033 70 283 2.0 6.0 0.00 0.00 0.00 63 1019.2
20260902160531 70 264 2.0 6.0 0.00 0.00 0.00 62 1019.3
20260902160029 70 284 3.0 6.0 0.00 0.00 0.00 62 1019.4
20260902155527 70 288 2.0 6.0 0.00 0.00 0.00 62 1019.4
20260902155025 70 284 2.0 4.0 0.00 0.00 0.00 62 1019.4
20260902154524 70 277 2.0 4.0 0.00 0.00 0.00 61 1019.4
20260902154021 70 281 2.0 7.0 0.00 0.00 0.00 61 1019.5
20260902153520 70 302 3.0 7.0 0.00 0.00 0.00 61 1019.6
20260902153049 70 288 4.0 9.0 0.00 0.00 0.00 60 1019.6
20260902153018 70 288 4.0 9.0 0.00 0.00 0.00 60 1019.6
20260902152517 70 292 4.0 8.0 0.00 0.00 0.00 61 1019.6
20260902152034 70 296 4.0 8.0 0.00 0.00 0.00 61 1019.6
20260902151532 70 289 3.0 8.0 0.00 0.00 0.00 62 1019.6
20260902151031 69 297 5.0 9.0 0.00 0.00 0.00 61 1019.6
20260902150529 69 299 4.0 10.0 0.00 0.00 0.00 62 1019.7
20260902150027 69 286 3.0 8.0 0.00 0.00 0.00 62 1019.7
20260902145525 69 283 2.0 6.0 0.00 0.00 0.00 61 1019.8
20260902145023 69 291 4.0 9.0 0.00 0.00 0.00 61 1019.8
20260902144521 69 299 4.0 9.0 0.00 0.00 0.00 60 1019.9
20260902144020 69 280 5.0 10.0 0.00 0.00 0.00 61 1019.8
20260902143518 69 278 6.0 14.0 0.00 0.00 0.00 63 1019.9
20260902143016 69 290 4.0 11.0 0.00 0.00 0.00 64 1019.7
20260902142535 69 301 2.0 7.0 0.00 0.00 0.00 65 1019.7
20260902142032 69 294 4.0 8.0 0.00 0.00 0.00 65 1019.6
20260902141530 69 309 2.0 3.0 0.00 0.00 0.00 65 1019.7
20260902141028 69 288 2.0 3.0 0.00 0.00 0.00 66 1019.7
20260902140526 69 282 3.0 6.0 0.00 0.00 0.00 65 1019.8
20260902140025 69 308 2.0 4.0 0.00 0.00 0.00 63 1019.6
20260902135523 69 331 2.0 4.0 0.00 0.00 0.00 63 1019.7
20260902135021 69 324 2.0 3.0 0.00 0.00 0.00 63 1019.6
20260902134519 69 42 1.0 2.0 0.00 0.00 0.00 63 1019.7
20260902134017 69 9 1.0 2.0 0.00 0.00 0.00 63 1019.7
20260902133535 69 329 1.0 2.0 0.00 0.00 0.00 62 1019.7
20260902133034 69 354 3.0 7.0 0.00 0.00 0.00 62 1019.7
20260902132532 69 353 3.0 7.0 0.00 0.00 0.00 62 1019.8
20260902132030 70 1 3.0 9.0 0.00 0.00 0.00 62 1019.7
20260902131528 70 10 3.0 10.0 0.00 0.00 0.00 61 1019.7
20260902131026 70 323 5.0 10.0 0.00 0.00 0.00 60 1019.8
20260902130524 70 286 6.0 16.0 0.00 0.00 0.00 62 1019.7
20260902130023 70 278 2.0 8.0 0.00 0.00 0.00 64 1019.8
20260902125520 70 292 2.0 6.0 0.00 0.00 0.00 64 1019.8
20260902125019 70 286 3.0 8.0 0.00 0.00 0.00 63 1019.8
20260902124517 70 281 3.0 6.0 0.00 0.00 0.00 63 1019.8
20260902124035 70 276 3.0 7.0 0.00 0.00 0.00 62 1019.8
20260902123533 70 276 3.0 8.0 0.00 0.00 0.00 63 1019.9
20260902123031 70 293 4.0 9.0 0.00 0.00 0.00 63 1019.9
20260902122530 71 270 5.0 10.0 0.00 0.00 0.00 62 1020.0
20260902122028 71 243 6.0 13.0 0.00 0.00 0.00 62 1020.0
20260902121526 71 272 6.0 15.0 0.00 0.00 0.00 62 1020.2
20260902121024 71 231 5.0 11.0 0.00 0.00 0.00 63 1020.2
20260902120522 70 242 5.0 10.0 0.00 0.00 0.00 65 1020.3
20260902120020 70 228 5.0 11.0 0.00 0.00 0.00 65 1020.3
20260902115519 70 230 6.0 13.0 0.00 0.00 0.00 65 1020.3
20260902115049 70 242 8.0 16.0 0.00 0.00 0.00 64 1020.4
20260902115017 70 242 8.0 16.0 0.00 0.00 0.00 64 1020.4
20260902114535 70 274 6.0 14.0 0.00 0.00 0.00 62 1020.4
20260902114033 69 288 7.0 11.0 0.00 0.00 0.00 63 1020.4
20260902113532 69 276 6.0 10.0 0.00 0.00 0.00 66 1020.5
20260902113030 69 275 5.0 11.0 0.00 0.00 0.00 68 1020.5
20260902112528 69 273 4.0 8.0 0.00 0.00 0.00 69 1020.5
20260902112026 69 268 4.0 7.0 0.00 0.00 0.00 69 1020.5
20260902111524 69 277 5.0 9.0 0.00 0.00 0.00 69 1020.4
20260902111022 69 279 2.0 9.0 0.00 0.00 0.00 69 1020.5
20260902110521 69 291 3.0 9.0 0.00 0.00 0.00 69 1020.5
20260902110019 69 295 3.0 7.0 0.00 0.00 0.00 67 1020.6
20260902105517 69 298 6.0 10.0 0.00 0.00 0.00 64 1020.6
20260902105035 70 286 8.0 17.0 0.00 0.00 0.00 61 1020.6
20260902104534 70 276 8.0 14.0 0.00 0.00 0.00 60 1020.5
20260902104031 70 269 7.0 14.0 0.00 0.00 0.00 60 1020.5
20260902103530 70 281 7.0 14.0 0.00 0.00 0.00 60 1020.4
20260902103028 70 286 5.0 11.0 0.00 0.00 0.00 61 1020.5
20260902102526 70 280 5.0 14.0 0.00 0.00 0.00 61 1020.5
20260902102024 70 284 3.0 8.0 0.00 0.00 0.00 61 1020.5
20260902101522 70 278 6.0 13.0 0.00 0.00 0.00 60 1020.5
20260902101021 70 301 7.0 11.0 0.00 0.00 0.00 60 1020.4
20260902100519 70 282 7.0 15.0 0.00 0.00 0.00 60 1020.5
20260902100051 70 286 6.0 13.0 0.00 0.00 0.00 60 1020.6
20260902100017 70 286 6.0 13.0 0.00 0.00 0.00 60 1020.6
20260902095535 70 281 6.0 16.0 0.00 0.00 0.00 60 1020.5
20260902095033 71 292 8.0 15.0 0.00 0.00 0.00 60 1020.5
20260902094531 70 282 7.0 11.0 0.00 0.00 0.00 61 1020.6
20260902094029 70 279 3.0 11.0 0.00 0.00 0.00 61 1020.6
20260902093528 70 296 5.0 10.0 0.00 0.00 0.00 61 1020.6